sat.trackr.live / text

‹ back to catalog

STARLINK-2227

NORAD 48575 · 2021-041Y

PAYLOAD ACTIVE UNKNOWN

§ Identity

Operator
Country
US
Launch date
2021-05-15
Launch site
AFETR
Launch vehicle
Mass (kg)
RCS (m²)

Purposes: comms

External: N2YO · Heavens-Above · Gunter

§ Orbital elements

Epoch: 2026-05-25T02:44:21.618240Z

Period
94.01 min
Inclination
53.1593°
Eccentricity
0.0001916
Mean motion
15.31702512 rev/d
Perigee alt
469.4 km
Apogee alt
472.0 km
Semi-major
6,848.9 km
B*
4.5405e-5
RAAN
92.7669°
Arg perigee
79.5677°
Mean anomaly
280.5541°
Rev number
27,753

§ Raw data

STARLINK-22271 48575U 21041Y   26145.11413910  .00001044  00000+0  45405-4 0  99952 48575  53.1593  92.7669 0001916  79.5677 280.5541 15.31702512277530

JSON: /api/v1/satellites/48575 · /tle

For live sub-satellite position, see the globe view (requires WebGL).

§ Visibility from observer

Set your observer location to see the next 7 days of passes ≥ 10°. The values pass through the URL so the page stays shareable.

No JS? Fill the form by hand. The geolocation button needs JavaScript.